Flag for France Weather past 2 weeks in Amiens, France

Now
63 °F

Passing clouds.


Feels Like: 63 °F
Forecast: 47 / 63 °F
Wind: 12 mph from Northwest

Location: Beauvais Airport

Current Time: Sep 2, 2015 at 7:10:22 PM

Latest Report: Sep 2, 2015 at 6:30 PM


Visibility: N/A

Pressure: 30.04 "Hg

Humidity: 59%

Dew point: 48 °F

Location of AmiensLocation

Historic Weather in Amiens — Graph

°F

Amiens temperature yesterday

Maximum temperature yesterday: 68 °F (at 1:30 PM)
Minimum temperature yesterday: 54 °F (at 10:30 PM)
Average temperature yesterday: 63 °F

Past Weeks' High & Low Weather Summary

 TemperatureHumidityPressure
High90 °F (Aug 30, 3:30 PM)100% (Aug 20, 9:30 AM)30.21 "Hg (Aug 20, 9:30 AM)
Low43 °F (Sep 2, 7:00 AM)29% (Aug 22, 4:00 PM)29.39 "Hg (Aug 24, 1:30 PM)
Average65 °F78%29.96 "Hg
* Reported Aug 18 5:00 PM — Sep 2 5:30 PM, Amiens, Weather by CustomWeather, © 2015

Note: Actual official high and low records may vary slightly from our data, if they occured in-between our weather recording intervals... More about our weather records

Advertising

Amiens weather history for previous 24 hours

 ConditionsComfort  
Time TempWeatherWind HumidityBarometerVisibility
5:30 PM
Wed, Sep 2
63 °FBroken clouds.13 mph64%30.04 "HgN/A
5:00 PM63 °FSunny.12 mph64%30.04 "Hg10 mi
4:30 PM64 °FBroken clouds.14 mph64%30.04 "HgN/A
4:00 PM64 °FBroken clouds.9 mph60%30.04 "HgN/A
3:30 PM64 °FMild.10 mph52%30.04 "HgN/A
3:00 PM63 °FOvercast.13 mph64%30.04 "HgN/A
2:30 PM64 °FMild.9 mph60%30.04 "HgN/A
2:00 PM64 °FPassing clouds.8 mph60%30.04 "HgN/A
1:30 PM64 °FMostly cloudy.9 mph64%30.07 "HgN/A
1:00 PM64 °FMostly cloudy.9 mph68%30.07 "HgN/A
12:30 PM63 °FOvercast.9 mph77%30.07 "HgN/A
12:00 PM63 °FOvercast.8 mph77%30.07 "HgN/A
11:30 AM63 °FMore clouds than sun.7 mph73%30.07 "HgN/A
11:00 AM61 °FOvercast.8 mph83%30.07 "HgN/A
10:30 AM57 °FBroken clouds.5 mph94%30.07 "HgN/A
10:00 AM55 °FPassing clouds.5 mph94%30.07 "HgN/A
9:30 AM55 °FPassing clouds.5 mph100%30.07 "HgN/A
9:00 AM54 °FPassing clouds.No wind94%30.07 "HgN/A
8:30 AM50 °FSunny.No wind100%30.07 "Hg10 mi
8:00 AM45 °FClear.No wind100%30.07 "Hg10 mi
7:30 AM45 °FPassing clouds.1 mph93%30.07 "Hg6 mi
7:00 AM43 °FPassing clouds.2 mph100%30.07 "Hg6 mi
6:30 AM45 °FFog.1 mph100%30.07 "Hg1 mi
5:30 AM45 °FFog.No wind100%30.07 "Hg1 mi
5:00 AM45 °FDense fog.No wind100%30.09 "Hg1 mi
4:30 AM45 °FFog.No wind93%30.09 "Hg3 mi
4:00 AM45 °FLight fog.1 mph100%30.09 "Hg6 mi
3:30 AM46 °FLight fog.No wind93%30.09 "Hg4 mi
3:00 AM46 °FFog.No wind100%30.09 "Hg1 mi
2:30 AM46 °FClear.1 mph93%30.09 "Hg4 mi
2:00 AM48 °FClear.No wind94%30.12 "Hg10 mi
1:30 AM48 °FClear.No wind94%30.12 "Hg6 mi
1:00 AM50 °FClear.3 mph94%30.12 "Hg10 mi
11:30 PM
Tue, Sep 1
54 °FClear.2 mph88%30.12 "Hg10 mi
11:00 PM54 °FClear.3 mph88%30.12 "Hg10 mi
10:30 PM54 °FClear.3 mph94%30.12 "Hg10 mi
10:00 PM55 °FClear.6 mph88%30.12 "Hg10 mi
9:30 PM55 °FSunny.7 mph88%30.12 "Hg10 mi
9:00 PM59 °FSunny.7 mph77%30.09 "Hg10 mi
8:30 PM61 °FSunny.9 mph72%30.09 "Hg10 mi
8:00 PM63 °FPassing clouds.10 mph68%30.09 "HgN/A
7:30 PM66 °FPartly sunny.12 mph60%30.09 "HgN/A
7:00 PM66 °FPartly sunny.14 mph60%30.09 "HgN/A
Weather by CustomWeather, © 2015

See weather overviewHow to use our weather pages